Location: Unspecified
(0.0000°N, 0.0000°E)
Time: 13:42:30
(UTC+00:00)

Vanguard 2 Rocket - Pass Details

Date: 22 November 2019
Orbit: 554 x 3326 km, 32.9° (Epoch: 08 December)

Event Time Altitude Azimuth Distance (km) Brightness Sun altitude
Rises 20:17:11 0° 243° (WSW) 5,213 11.8 -35.1°
Reaches altitude 10° 20:21:27 10° 247° (WSW) 3,742 10.8 -36.0°
Enters shadow 20:28:30 44° 286° (WNW) 1,470 8.0 -37.6°
Maximum altitude 20:29:53 50° 320° (NW) 1,265 - -37.9°
Drops below altitude 10° 20:34:56 10° 36° (NE) 2,262 - -39.1°
Sets 20:36:57 0° 42° (NE) 3,010 - -39.5°
